Location: Newark
(22.3060°N, 114.2134°E)
Time: 02:51:17
(UTC+00:00)

Vanguard 2 - Pass Details

Date: 08 August 2021
Orbit: 553 x 2937 km, 32.9° (Epoch: 27 September)

Event Time Altitude Azimuth Distance (km) Brightness Sun altitude
Rises 15:59:11 0° 230° (SW) 4,834 - -51.1°
Reaches altitude 10° 16:03:07 10° 226° (SW) 3,443 - -51.2°
Maximum altitude 16:10:51 51° 153° (SSE) 1,166 - -51.5°
Drops below altitude 10° 16:15:45 10° 77° (ENE) 2,205 - -51.6°
Sets 16:17:47 0° 72° (ENE) 2,971 - -51.7°
